Iowa City, IA

11:37 AM CST on December 05, 2019 (GMT -0600)
Iowa City Municipal

Weather History for KIOW - October, 2019

Change the Weather History Date:

Thursday, October 24, 2019

  Actual Average Record
Temperature  
Mean Temperature 41 °F 49 °F  
Max Temperature 50 °F 59 °F 81 °F (1963)
Min Temperature 32 °F 39 °F 21 °F (1999)
Degree Days  
Heating Degree Days 24 16  
Month to date heating degree days 303 291  
Since 1 July heating degree days 310 403  
Cooling Degree Days 0 0  
Month to date cooling degree days 18 10  
Year to date cooling degree days 1175 912  
Moisture  
Dew Point 33 °F    
Average Humidity 71    
Maximum Humidity 89    
Minimum Humidity 53    
Precipitation  
Precipitation 0.00 in 0.10 in 1.12 in (1967)
Month to date precipitation 1.91 2.21  
Year to date precipitation 38.88 31.75  
Sea Level Pressure  
Sea Level Pressure 30.34 in    
Wind  
Wind Speed 6 mph (WNW)    
Max Wind Speed 14 mph    
Max Gust Speed 22 mph    
Visibility 10 miles    
Events      
T = Trace of Precipitation, MM = Missing Value Source: NWS Daily Summary

Daily Weather History Graph

Daily Weather History Graph

Search for Another Location

Airport or City:

Astronomy

Oct. 24, 2019 Rise Set
Actual Time 7:28 AM CDT 6:11 PM CDT
Civil Twilight 7:00 AM CDT 6:40 PM CDT
Nautical Twilight 6:27 AM CDT 7:12 PM CDT
Astronomical Twilight 5:55 AM CDT 7:44 PM CDT
Moon 2:53 AM CDT (10/24) 4:43 PM CDT (10/24)
Length of Visible Light 11h 40m
Length of Day
10h 43m
Waning Crescent, 16% of the Moon is Illuminated
Oct 24
Waning Crescent
Oct 27
New
Nov 4
First Quarter
Nov 12
Full
Nov 19
Last Quarter

Hourly Weather History & Observations

Time (CDT) Temp. Windchill Dew Point Humidity Pressure Visibility Wind Dir Wind Speed Gust Speed Precip Events Conditions
12:52 AM 44.1 °F 39.0 °F 37.0 °F 76% 30.18 in 10.0 mi NW 9.2 mph - N/A   Overcast
1:52 AM 43.0 °F 38.2 °F 36.0 °F 76% 30.22 in 10.0 mi NW 8.1 mph - N/A   Overcast
2:52 AM 41.0 °F 35.2 °F 35.1 °F 79% 30.22 in 10.0 mi NW 9.2 mph - N/A   Clear
3:52 AM 39.9 °F 34.5 °F 35.1 °F 83% 30.24 in 10.0 mi NW 8.1 mph - N/A   Clear
4:52 AM 39.9 °F 33.9 °F 35.1 °F 83% 30.26 in 10.0 mi NW 9.2 mph - N/A   Clear
5:52 AM 37.9 °F 32.7 °F 34.0 °F 86% 30.28 in 10.0 mi NW 6.9 mph - N/A   Clear
6:52 AM 37.9 °F 34.4 °F 34.0 °F 86% 30.30 in 10.0 mi NW 4.6 mph - N/A   Clear
7:52 AM 35.1 °F 32.2 °F 32.0 °F 89% 30.34 in 10.0 mi WNW 3.5 mph - N/A   Clear
8:52 AM 39.9 °F 35.8 °F 35.1 °F 83% 30.38 in 10.0 mi Variable 5.8 mph - N/A   Clear
9:52 AM 42.1 °F 36.1 °F 35.1 °F 76% 30.38 in 10.0 mi NW 10.4 mph - N/A   Clear
10:52 AM 45.0 °F 40.6 °F 35.1 °F 68% 30.39 in 10.0 mi NW 8.1 mph - N/A   Clear
11:52 AM 46.9 °F - 33.1 °F 59% 30.39 in 10.0 mi WNW 10.4 mph - N/A   Scattered Clouds
12:52 PM 48.9 °F - 33.1 °F 54% 30.38 in 10.0 mi WNW 10.4 mph - N/A   Scattered Clouds
1:52 PM 48.9 °F - 33.1 °F 54% 30.38 in 10.0 mi WNW 5.8 mph - N/A   Mostly Cloudy
2:52 PM 48.0 °F - 33.1 °F 56% 30.37 in 10.0 mi NW 6.9 mph - N/A   Overcast
3:52 PM 48.0 °F - 32.0 °F 54% 30.36 in 10.0 mi NW 8.1 mph - N/A   Overcast
4:52 PM 46.9 °F - 32.0 °F 56% 30.35 in 10.0 mi NW 4.6 mph - N/A   Clear
5:52 PM 46.0 °F 43.9 °F 30.9 °F 56% 30.35 in 10.0 mi WNW 4.6 mph - N/A   Clear
6:52 PM 39.9 °F 37.8 °F 32.0 °F 73% 30.38 in 10.0 mi WSW 3.5 mph - N/A   Clear
7:52 PM 37.0 °F 34.5 °F 30.9 °F 79% 30.41 in 10.0 mi West 3.5 mph - N/A   Clear
8:52 PM 37.9 °F 33.5 °F 30.0 °F 73% 30.41 in 10.0 mi NW 5.8 mph - N/A   Clear
9:52 PM 35.1 °F - 30.0 °F 82% 30.43 in 10.0 mi Calm Calm - N/A   Clear
11:52 PM 33.1 °F - 28.9 °F 85% 30.40 in 10.0 mi Calm Calm - N/A   Clear